Retour au catalogue

THOR AGENA D R/B

ActifLEO
NORAD 1245·ROCKET BODY·🇺🇸 United States

Lancé Mar 9, 1965 depuis Vandenberg Space Force Base

Loading…

Prochains Passages (prochaines 24 heures)

TLE

FraisSource: Space-Track

Époque: Sep 14, 2026, 11:09 UTC

1 01245U 65016J   26257.46484134  .00000052  00000-0  73754-4 0  9993
2 01245  70.0760 274.3303 0024063 289.1646  70.6857 13.97686857132770

Suivez THOR AGENA D R/B en temps réel avec AllMySat

Download on the App Store